Regional Weather Roundup
Issued by NWS

Home | Current Version | Previous Version | Graphics & Text | Print | Product List | Glossary On
Versions: 1 2 3 4 5 6 7 8 9 10 11 12 13 14 15 16 17 18 19 20 21 22 23 24 25 26 27 28
000
ASUS45 KPSR 120410
RWRAZ

ARIZONA HOURLY REGIONAL WEATHER ROUNDUP
NATIONAL WEATHER SERVICE PHOENIX AZ
900 PM MST MON DEC 11 2017

NOTE: FAIR INDICATES FEW OR NO CLOUDS BELOW 12,000 FEET WITH NO
SIGNIFICANT WEATHER AND/OR OBSTRUCTIONS TO VISIBILITY.

AZZ001>003-036-120500-
NORTHWEST ARIZONA

CITY           SKY/WX    TMP DP  RH WIND       PRES   REMARKS
BULLHEAD CITY  CLEAR     64  -2   7 N15G22    30.26S
KINGMAN        PTCLDY    36  -3  19 E6        30.35R WCI  31
$$

AZZ004>008-015-016-018-120500-
NORTH CENTRAL ARIZONA

CITY           SKY/WX    TMP DP  RH WIND       PRES   REMARKS
GRAND CANYON   PTCLDY    24 -17  15 NE6       30.47R WCI  17
WILLIAMS       CLEAR     27  -9  20 S8        30.42R WCI  18
PRESCOTT       PTCLDY    35  -4  18 S6        30.38R WCI  30
FLAGSTAFF      PTCLDY    23  -8  25 CALM      30.46R
PAYSON         CLEAR     46 -17   6 N3        30.36S
PAGE           CLEAR     36  15  42 CALM      30.46R HAZE
$$

AZZ009>014-017-120500-
NORTHEAST ARIZONA

CITY           SKY/WX    TMP DP  RH WIND       PRES   REMARKS
WINSLOW        MOCLDY    22  -7  27 S3        30.45R
SAINT JOHNS    PTCLDY    23  -3  32 S6        30.45R WCI  16
WINDOW ROCK    CLEAR     18  -7  32 CALM      30.45S
SHOW LOW       PTCLDY    27  -2  28 E5        30.46R WCI  21
$$

AZZ540-542>544-546-548-120500-
GREATER PHOENIX AREA

CITY           SKY/WX    TMP DP  RH WIND       PRES   REMARKS
PHOENIX        PTCLDY    58  22  24 E7        30.19R
BUCKEYE        CLEAR     54   5  14 N13       30.21R
LUKE AFB       PTCLDY    51  25  36 NW9       30.19R
DEER VALLEY    CLEAR     52   7  16 NE6       30.20S
SCOTTSDALE     CLEAR     54  23  30 CALM      30.22R
MESA-GATEWAY   CLEAR     54  18  24 E7        30.21S
CHANDLER       CLEAR     55  28  35 CALM      30.20S
$$

AZZ539-553-120500-
SOUTHWEST MARICOPA COUNTY AND PINAL COUNTY

CITY           SKY/WX    TMP DP  RH WIND       PRES   REMARKS
CASA GRANDE    NOT AVBL
GILA BEND      MOCLDY    63  10  13 CALM      30.19R
$$

AZZ503-504-507>509-120500-
SOUTHEAST ARIZONA

CITY           SKY/WX    TMP DP  RH WIND       PRES   REMARKS
TUCSON         CLOUDY    61  20  20 S3        30.25S
DAVIS-MONTHAN  CLOUDY    57  20  24 CALM      30.23S
NOGALES        MOCLDY    56  19  23 S6        30.27R
SIERRA VISTA   MOCLDY    49  19  29 S6        30.33F
DOUGLAS        MOCLDY    47  19  33 CALM      30.32S
SAFFORD        PTCLDY    45   9  23 SE6       30.29S
$$

AZZ532-120500-
SOUTHWEST ARIZONA

CITY           SKY/WX    TMP DP  RH WIND       PRES   REMARKS
YUMA           CLEAR     58  13  17 CALM      30.20R
$$

CAZ041-043-047-048-061-525>527-560>570-120500-
SOUTHERN CALIFORNIA

CITY           SKY/WX    TMP DP  RH WIND       PRES   REMARKS
DOWNTOWN L.A.  CLEAR     60  30  32 CALM      30.18R
L.A. AIRPORT   PTCLDY    62  41  46 CALM      30.19R
SAN DIEGO      PTCLDY    66  31  27 CALM      30.18S
BURBANK        CLEAR     59  19  21 CALM      30.20R
ONTARIO        MOCLDY    60  16  18 NW6       30.20S
RIVERSIDE      CLEAR     66   4   8 NE6       30.21S
PALM SPRINGS   CLEAR     66   8  10 W7        30.25R
EL CENTRO NAS  PTCLDY    56   4  12 W10       30.22R
IMPERIAL       CLEAR     55  24  30 CALM      30.20R
BLYTHE         CLEAR     57  -1   9 N10       30.22S
NEEDLES        CLEAR     57  -1   9 NW9       30.27S
$$

NVZ020-UTZ003-120500-
SOUTHERN NEVADA-UTAH

CITY           SKY/WX    TMP DP  RH WIND       PRES   REMARKS
LAS VEGAS      CLEAR     49   1  14 SW5       30.33S
SALT LAKE CITY FOG       27  25  92 CALM      30.60R VSB 1/4
$$

NMZ009-TXZ055-120500-
NEW MEXICO-WEST TEXAS

CITY           SKY/WX    TMP DP  RH WIND       PRES   REMARKS
ALBUQUERQUE    CLOUDY    32   1  26 E5        30.42R WCI  27
EL PASO        MOCLDY    45  25  45 CALM      30.34R
$$


........................KEY........................
SKY/WX - SKY CONDITION/WEATHER
TMP    - TEMPERATURE IN FAHRENHEIT
DP     - DEW POINT IN FAHRENHEIT
RH     - RELATIVE HUMIDITY IN PERCENT
WIND   - DIRECTION AND SPEED IN MILES PER HOUR (MPH)
VRB    - VARIABLE WIND DIRECTION
PRES   - MEAN SEA LEVEL PRESSURE IN INCHES OF MERCURY
         F - FALLING PRESSURE   R - RISING PRESSURE
         S - STEADY PRESSURE
VSB    - VISIBILITY IN MILES
HX     - HEAT INDEX IN FAHRENHEIT
WCI    - WIND CHILL INDEX IN FAHRENHEIT
TC     - TEMPERATURE IN CELSIUS WHICH IS ALSO KNOWN AS
         TEMPERATURE IN CENTIGRADE
AFB    - AIR FORCE BASE
         LUKE AFB IS LUKE AIR FORCE BASE
         DAVIS-MONTHAN IS DAVIS-MONTHAN AIR FORCE BASE
NAS    - NAVAL AIR STATION
         EL CENTRO NAS IS EL CENTRO NAVAL AIR STATION
N/A    - NOT AVAILABLE





USA.gov is the U.S. government's official web portal to all federal, state and local government web resources and services.